Location: Unspecified
(0.0000°N, 0.0000°E)
Time: 05:46:22
(UTC+02:00)

Orbus 21S - Visible Passes

Search period start: 19 August 2017 00:00
Search period end: 29 August 2017 00:00
Orbit: 292 x 33014 km, 24.4° (Epoch: 18 August)

Date Brightness Start Highest point End Pass type
(mag) Time Alt. Az. Time Alt. Az. Time Alt. Az.
19 Aug 7.2 00:12:16 10° W 01:43:19 35° WSW 08:59:16 10° NE visible
19 Aug 7.9 19:01:07 10° NW 19:19:00 80° NNE 04:01:57 10° E visible
21 Aug 6.7 00:38:50 10° W 02:06:01 29° WSW 09:18:36 10° NE visible
21 Aug 8.2 19:20:52 10° WNW 19:42:10 87° NNE 04:23:02 10° E visible
23 Aug 6.2 01:08:32 10° W 02:28:01 22° WSW 09:37:40 10° NNE visible
23 Aug 8.2 19:40:35 10° WNW 20:06:30 86° SSW 04:43:37 10° E visible
24 Aug 9.8 20:31:10 10° ESE 21:39:12 12° ESE 22:28:48 10° ESE visible
25 Aug 10.0 01:44:43 10° WSW 02:49:25 16° WSW 04:44:08 10° WSW visible
25 Aug 8.1 20:00:18 10° WNW 20:32:36 81° SSW 05:03:46 10° E visible
26 Aug 9.6 19:36:29 10° ESE 21:58:31 18° ESE 23:17:20 10° ESE visible
27 Aug 10.2 02:50:05 10° WSW 03:10:15 10° WSW 03:33:27 10° WSW visible
27 Aug 8.0 20:20:04 10° WNW 21:01:20 75° SSW 05:23:33 10° E visible
28 Aug 6.2 15:27:52 10° N 22:18:07 23° ESE 23:51:41 10° ESE visible
